{"data":{"norad_id":67105,"epoch":"2026-05-24T22:01:22.392192Z","epoch_age_seconds":82139,"freshness":"FRESH","line1":"1 67105U 25299D   26144.91762028  .00023534  00000+0  86148-3 0  9994","line2":"2 67105  43.0014  98.5629 0000078  29.1821 330.9035 15.27599601 24778","mean_motion":15.27599601,"eccentricity":7.8e-6,"inclination_deg":43.0014,"raan_deg":98.5629,"arg_perigee_deg":29.1821,"mean_anomaly_deg":330.9035,"bstar":0.00086148,"rev_number":2477,"period_min":94.265539154196,"perigee_km":482.93688742806,"apogee_km":483.04392101556,"semimajor_km":6861.1274042218,"source":"CELESTRAK","updated_at":"2026-05-25T13:38:21.472971Z"}}